Location: Songkhla
(7.2000°N, 100.6000°E)
Time: 15:05:59
(UTC+07:00)

Tiangong - All Passes

Search period start: 14 April 2024 00:00
Search period end: 24 April 2024 00:00
Orbit: 371 x 381 km, 41.5° (Epoch: 13 April)

Date Brightness Start Highest point End Pass type
(mag) Time Alt. Az. Time Alt. Az. Time Alt. Az.
14 Apr - 05:17:52 10° NNW 05:20:35 26° NE 05:23:17 10° ESE visible
14 Apr - 06:55:31 10° WSW 06:57:04 13° SW 06:58:37 10° SSW daylight
14 Apr - 18:25:39 10° SSW 18:28:36 45° SE 18:31:34 10° ENE daylight
15 Apr - 04:17:24 10° NNE 04:18:08 11° NE 04:18:52 10° NE visible
15 Apr - 05:51:49 10° WNW 05:54:43 35° SW 05:57:38 10° SSE daylight
15 Apr - 17:24:19 10° S 17:26:17 16° SE 17:28:14 10° E daylight
15 Apr - 19:00:23 10° W 19:02:47 21° NW 19:05:11 10° N visible
16 Apr - 04:49:17 10° NW 04:52:23 66° NE 04:55:30 10° SE visible
16 Apr - 17:57:21 10° SW 18:00:24 64° NW 18:03:26 10° NE daylight
17 Apr - 03:47:29 10° NNW 03:49:59 22° NE 03:52:30 10° E visible
17 Apr - 05:24:30 10° W 05:26:30 16° SW 05:28:30 10° S visible
17 Apr - 16:55:12 10° SSW 16:58:03 36° SE 17:00:54 10° ENE daylight
18 Apr - 04:21:08 10° WNW 04:24:09 45° SW 04:27:10 10° SSE visible
18 Apr - 15:54:12 10° SSE 15:55:42 13° SE 15:57:13 10° ESE daylight
18 Apr - 17:29:34 10° W 17:32:11 25° NW 17:34:48 10° NNE daylight
19 Apr - 03:18:44 10° NW 03:21:47 51° NE 03:24:50 10° ESE night (unlit)
19 Apr - 16:26:45 10° SW 16:29:48 83° NW 16:32:52 10° NE daylight
20 Apr - 02:17:08 10° N 02:19:23 18° NE 02:21:37 10° E night (unlit)
20 Apr - 03:53:34 10° W 03:55:54 19° SW 03:58:14 10° S night (unlit)
20 Apr - 15:24:44 10° SSW 15:27:28 28° SE 15:30:10 10° ENE daylight
20 Apr - 17:02:43 10° WNW 17:04:01 12° NW 17:05:18 10° NNW daylight
21 Apr - 02:50:28 10° NW 02:53:32 58° SW 02:56:37 10° SE night (unlit)
21 Apr - 14:24:25 10° SSE 14:25:06 11° SE 14:25:48 10° ESE daylight
21 Apr - 15:58:48 10° WSW 16:01:34 31° NW 16:04:21 10° NNE daylight
22 Apr - 01:48:13 10° NNW 01:51:10 40° NE 01:54:07 10° ESE night (unlit)
22 Apr - 14:56:07 10° SW 14:59:12 76° SE 15:02:15 10° NE daylight
23 Apr - 00:46:51 10° N 00:48:43 15° NE 00:50:37 10° ENE night (unlit)
23 Apr - 02:22:42 10° W 02:25:16 23° SW 02:27:50 10° SSE night (unlit)
23 Apr - 13:54:18 10° SSW 13:56:50 23° SE 13:59:22 10° E daylight
23 Apr - 15:31:34 10° WNW 15:33:22 15° NW 15:35:10 10° N daylight
